Theta_e
356 356 355 354 353 353 352 352 353 355 354 352 351 349 348 348 349 348 348 348 347 346 346 347 349 351 352 352 350 349 350 350 350 350 348 345 342 343 348 352 353 352 350 346 346 348 350 352 353 354 355 352 350 350 351 351 351 350 349 349 350 352 353 353 353 352 352 352 351 351 352 353 352 351 353 353 352 350 348 347 346 344 343 343 343
354 354 354 354 353 353 354 354 353 354 354 353 352 352 351 350 349 349 349 348 348 347 346 347 348 349 351 352 352 351 350 349 350 351 351 350 348 345 346 350 351 349 348 346 345 345 346 348 349 351 351 350 349 351 352 353 352 351 350 350 350 351 351 353 353 353 353 353 352 353 353 353 352 351 351 352 352 351 349 348 347 346 344 344 344
351 354 355 354 353 353 354 354 355 354 354 353 353 353 353 352 351 350 350 350 348 348 348 348 349 349 349 350 350 350 350 350 350 351 351 351 351 351 351 353 353 352 350 349 347 348 348 348 349 352 353 353 353 354 354 353 353 353 352 352 352 352 352 352 353 353 353 352 351 352 353 352 352 352 352 351 351 351 349 348 348 347 347 347 347
350 353 354 354 353 353 354 354 354 354 354 353 352 351 352 352 352 352 352 351 351 350 350 350 350 351 351 350 349 349 350 350 350 351 352 351 352 352 353 353 353 355 355 355 354 354 353 353 354 355 355 355 354 354 354 353 353 354 354 353 353 353 353 353 354 354 354 352 351 351 351 349 348 350 351 350 350 351 350 348 348 349 349 349 350
350 351 350 351 352 351 351 353 354 354 354 354 352 351 350 350 351 353 353 353 352 352 352 352 352 352 352 352 351 350 350 350 351 351 352 352 353 353 353 352 351 352 353 355 356 355 354 354 356 356 356 355 355 355 354 353 353 353 354 354 354 353 354 354 354 355 354 354 353 352 351 349 347 348 349 349 348 348 349 348 348 348 349 350 352
353 351 349 349 349 348 348 350 351 352 352 352 352 351 350 349 348 350 352 352 352 352 353 352 353 353 353 353 353 352 352 351 351 352 352 353 353 354 354 354 353 353 353 352 352 353 354 354 355 355 355 355 355 354 354 354 354 354 353 354 354 354 354 353 353 353 353 353 353 352 350 350 349 349 349 349 348 347 347 346 346 346 348 350 351
356 354 352 350 348 347 347 348 350 350 349 350 350 350 349 349 349 348 348 350 351 352 352 352 353 353 353 353 353 354 354 353 353 353 353 354 354 353 354 355 355 356 355 354 353 353 354 355 355 355 355 354 354 353 354 354 354 354 354 353 354 354 353 354 353 352 352 351 350 349 349 348 348 347 347 347 347 347 345 344 344 343 345 348 349
355 355 354 352 351 352 353 352 351 350 349 349 348 349 349 349 349 348 348 347 348 351 352 351 351 352 352 353 354 354 354 354 354 354 353 353 354 354 353 354 355 355 355 355 354 354 354 355 356 355 354 353 353 353 353 353 353 354 354 354 354 354 353 352 352 351 351 350 349 349 348 345 345 348 348 346 347 348 346 344 344 343 344 347 346
353 353 353 352 352 353 354 353 351 349 349 348 347 348 349 349 348 348 350 349 348 350 352 351 350 351 351 352 353 354 354 355 355 354 354 354 354 354 353 353 354 354 354 355 354 354 354 354 354 353 352 352 352 352 352 352 352 351 352 353 353 352 351 350 349 348 349 348 347 349 350 347 347 350 351 350 349 349 348 345 344 344 344 344 343
350 350 349 350 349 350 350 350 349 348 348 349 348 348 348 348 347 348 351 353 352 351 351 351 351 351 351 351 352 353 353 353 354 354 354 354 354 354 353 353 354 354 355 355 354 354 354 354 353 353 352 351 351 351 351 352 352 352 352 352 352 351 351 348 347 346 347 347 346 348 350 350 351 352 352 352 350 349 348 345 343 344 344 342 342
350 349 348 348 348 348 347 347 347 347 348 348 348 348 348 348 349 347 347 351 353 352 350 351 351 350 350 350 351 352 352 351 351 352 353 354 354 354 354 353 354 354 354 354 354 354 353 354 355 354 353 352 351 350 350 351 352 352 352 351 352 352 351 349 348 347 347 347 346 346 347 349 351 352 353 353 351 349 349 346 344 344 343 342 343
348 348 349 349 349 348 346 346 347 347 348 349 349 349 348 348 349 349 346 347 350 351 351 350 351 350 349 350 351 351 350 350 350 350 352 353 353 353 354 354 354 354 354 353 352 352 351 352 353 353 351 350 349 350 350 350 351 351 350 350 350 351 352 351 351 351 351 350 348 345 345 346 348 349 351 351 349 348 349 348 345 343 343 344 345
345 346 347 346 344 344 345 347 348 347 348 349 349 349 349 348 349 349 349 348 346 347 348 350 351 350 348 349 351 350 348 350 351 350 351 352 353 353 354 354 354 354 353 352 351 351 350 350 350 350 350 350 349 350 350 351 352 351 350 349 348 348 349 349 349 351 352 352 349 346 344 345 347 347 349 350 350 349 349 348 347 343 342 345 347
347 347 347 344 341 343 347 349 349 348 348 349 350 350 350 350 351 350 350 349 348 347 348 350 351 350 348 347 349 350 350 350 350 350 350 351 352 353 353 353 352 352 351 351 351 350 350 350 349 349 350 350 350 349 349 350 350 349 348 347 347 346 345 344 345 347 348 349 350 348 347 347 348 348 348 350 350 350 349 349 348 345 343 344 346
349 349 349 348 347 348 349 349 348 349 350 350 350 350 350 350 350 350 350 350 350 349 348 348 349 350 350 349 350 352 351 349 349 349 348 349 350 351 351 351 350 350 350 350 350 350 351 351 352 351 351 350 350 349 348 348 347 346 345 345 346 346 344 343 343 344 345 346 348 349 349 349 349 348 348 349 350 350 350 349 348 346 344 344 345
347 348 348 348 348 348 348 348 348 349 349 350 350 349 350 350 349 349 350 350 350 349 348 348 348 348 348 348 349 351 351 349 349 349 347 348 350 351 350 349 349 349 350 350 350 351 351 352 352 351 349 349 349 349 348 347 346 345 344 345 346 347 346 344 344 344 344 344 345 346 346 348 349 348 348 350 350 350 350 350 349 348 346 345 346
345 345 345 346 346 346 346 346 347 348 349 350 349 349 349 350 350 350 350 351 351 351 350 349 349 349 349 347 347 348 349 349 349 349 348 349 349 350 350 349 348 348 349 348 349 349 350 350 351 351 349 346 347 347 348 348 347 346 346 346 347 348 347 345 345 345 344 343 343 344 345 346 347 348 350 350 350 350 350 351 350 348 346 346 347
341 342 343 343 344 344 345 345 346 346 347 348 348 348 348 348 349 349 349 349 349 349 349 349 350 350 350 349 347 347 348 350 349 349 350 349 349 349 348 347 347 346 347 347 347 347 347 348 349 349 347 345 345 346 347 347 347 348 349 350 349 348 347 345 345 345 345 344 344 345 346 346 347 348 348 349 349 350 351 351 350 349 348 348 348
337 340 341 341 341 342 342 342 342 342 343 342 342 343 343 342 343 343 343 343 343 344 345 346 348 351 351 350 349 348 349 350 350 350 350 349 349 348 347 346 346 347 347 347 347 347 347 347 348 348 348 347 347 347 347 347 347 349 351 350 348 346 345 345 345 346 347 347 346 346 347 347 347 347 347 347 348 350 351 351 350 349 348 348 347
335 337 337 338 339 340 339 340 340 340 341 340 339 339 338 337 336 336 337 337 338 340 344 345 347 350 351 351 350 349 350 350 350 349 349 348 348 347 346 346 347 348 348 348 348 348 349 348 348 348 350 350 349 348 347 346 347 348 348 347 346 346 346 345 346 346 347 347 347 348 348 347 347 348 349 349 349 350 350 350 350 350 348 347 347
330 332 334 334 334 336 337 338 338 339 339 339 339 339 338 337 337 337 338 338 337 340 344 345 345 346 347 346 344 345 348 349 349 349 349 348 348 348 348 348 348 348 348 348 348 349 348 347 346 346 348 348 347 347 346 346 346 346 346 346 346 346 346 346 346 347 347 346 347 347 348 348 347 348 349 350 350 349 349 350 351 350 348 347 348
320 321 323 325 327 329 331 333 335 336 336 337 338 339 339 340 341 340 340 341 341 341 342 343 343 343 343 341 339 339 341 343 345 347 348 349 348 347 346 346 346 346 346 346 347 346 346 345 344 344 345 345 345 345 345 344 344 344 345 345 345 345 346 346 345 346 346 346 346 347 348 348 348 347 348 349 350 349 349 350 350 350 348 347 347
322 320 318 317 318 320 323 327 330 331 333 334 335 337 338 339 340 340 340 342 343 342 342 341 341 341 341 341 340 340 339 339 340 341 341 342 343 341 340 341 343 344 344 344 344 344 345 344 344 344 344 343 343 343 342 342 342 342 342 342 342 343 343 343 342 342 342 343 343 344 345 346 347 348 349 349 349 348 348 350 350 349 348 346 344
325 324 322 321 320 319 319 321 324 325 328 330 332 334 336 337 338 339 340 341 341 341 341 341 340 340 339 339 340 340 339 340 340 340 339 340 341 341 340 341 342 343 343 343 343 343 343 343 342 341 339 336 335 334 334 334 335 335 336 337 338 339 339 339 340 340 340 341 341 341 342 344 347 348 349 350 349 346 346 347 347 345 344 342 339
326 324 323 323 323 322 322 323 324 323 323 324 326 329 330 332 335 337 338 338 338 338 338 338 338 337 336 336 336 335 335 335 336 337 338 339 340 340 340 340 340 340 339 339 339 339 339 338 337 333 330 330 331 331 330 331 332 332 333 334 335 337 338 339 341 341 341 342 342 343 344 345 346 347 347 347 346 343 342 342 340 337 336 335 333
328 327 325 323 321 319 318 318 319 320 318 318 321 323 324 327 329 332 333 334 334 334 334 333 333 332 332 332 331 330 330 330 330 331 332 333 333 333 333 333 333 333 330 329 330 333 333 332 331 330 331 334 335 335 335 334 333 333 333 334 336 337 339 340 341 342 343 343 344 345 346 346 347 347 344 342 340 338 337 336 333 331 330 330 327
328 327 327 326 323 321 318 315 313 313 314 315 317 318 320 323 326 329 331 332 332 332 332 331 331 331 331 331 330 329 327 325 325 325 326 327 328 328 328 327 327 326 322 318 319 322 325 327 328 330 333 336 337 337 337 335 334 334 334 335 336 337 338 338 340 341 342 343 344 345 345 345 344 341 338 335 335 334 333 331 329 328 327 327 327
328 329 328 328 326 325 325 323 317 313 311 311 312 312 312 314 317 321 325 329 331 332 332 331 330 330 330 328 326 323 319 316 315 315 316 318 319 320 321 321 321 321 317 312 312 317 322 327 330 331 334 337 337 336 336 335 335 335 335 335 336 336 336 337 338 339 340 341 342 341 340 339 336 333 332 331 330 329 328 327 326 325 325 325 326
326 326 327 328 327 325 324 325 324 321 315 310 309 311 313 312 311 311 314 317 320 322 324 324 321 319 319 316 314 312 310 309 309 309 309 310 310 311 312 312 313 314 311 310 317 326 330 332 334 334 335 336 336 335 334 334 334 334 334 333 333 333 334 335 336 336 336 337 336 335 334 333 332 330 329 328 327 325 325 324 323 323 323 323 322
325 323 323 325 326 325 325 325 326 326 323 318 316 318 321 321 316 311 310 310 311 311 312 312 311 310 310 309 309 309 308 307 308 307 307 308 309 309 309 309 310 313 315 318 326 332 334 333 334 335 335 336 335 334 333 333 333 332 331 331 331 331 332 333 333 332 332 332 332 331 330 329 328 327 326 326 325 324 324 324 322 322 322 321 321
326 324 322 321 323 325 326 326 326 327 326 325 324 325 326 326 323 319 316 316 316 315 312 309 309 309 309 309 309 309 308 308 308 307 307 308 310 310 310 310 309 312 320 327 330 332 333 333 333 333 333 334 333 333 332 332 331 330 330 329 329 330 330 330 330 330 330 330 328 327 326 325 325 325 324 324 324 324 324 323 321 321 322 321 321
322 321 320 320 321 323 325 325 326 327 327 327 327 326 326 326 325 323 322 322 323 321 318 315 312 310 309 310 309 309 310 309 309 309 308 309 312 315 316 316 312 311 317 325 328 329 330 331 331 331 331 331 331 332 332 331 330 329 329 328 328 328 328 329 329 328 327 326 325 324 323 323 323 324 323 323 323 323 323 322 321 320 321 320 320
317 318 317 316 318 320 322 323 324 325 325 325 326 326 326 326 324 324 324 324 324 322 321 322 319 314 311 312 312 310 310 310 311 311 309 311 317 321 322 323 321 316 315 320 324 324 325 326 327 329 329 329 331 331 331 330 329 329 329 328 328 327 327 327 327 326 324 323 322 322 323 323 323 323 322 322 322 322 321 321 320 321 319 317 317
320 323 321 318 319 321 322 322 322 322 322 321 321 324 326 326 325 325 325 325 323 322 322 323 323 319 317 318 318 315 312 311 312 311 311 315 322 326 325 325 325 323 321 321 323 323 323 324 326 328 329 330 330 330 329 329 329 329 328 328 327 326 326 325 325 324 323 322 322 322 322 322 322 322 322 321 321 320 320 320 320 320 317 314 314
323 326 325 323 323 325 325 322 317 317 319 318 317 321 324 325 325 326 326 325 323 323 323 324 323 321 320 321 322 319 315 313 312 311 311 317 323 325 325 325 325 324 324 323 323 323 323 323 324 326 327 328 328 328 328 328 328 327 326 325 325 324 324 323 323 323 322 322 322 322 322 322 322 322 322 321 321 321 320 319 318 317 313 311 312
321 323 324 324 325 326 325 321 316 316 317 316 316 319 322 323 323 324 326 325 324 324 324 324 323 322 321 322 321 320 317 317 317 315 314 318 322 323 323 323 323 323 323 323 323 322 322 322 322 324 325 325 325 326 327 327 327 326 325 324 323 323 323 323 323 322 322 321 321 321 321 321 321 321 321 320 320 320 319 317 316 316 315 314 314
320 322 323 324 324 324 320 317 319 322 321 318 318 321 323 323 323 323 324 324 324 324 324 323 323 322 322 322 322 320 319 320 321 320 318 319 321 322 321 321 322 322 322 322 322 321 321 321 321 322 322 323 323 324 324 324 325 325 324 323 323 323 322 322 322 321 321 320 320 320 320 320 320 319 319 318 318 318 317 317 316 317 316 315 313
320 321 322 322 321 320 317 316 319 323 323 321 321 322 322 322 322 322 322 323 323 323 323 323 323 323 323 323 322 320 319 321 323 322 320 319 320 321 321 321 320 321 321 321 321 321 320 320 320 320 320 320 321 321 322 322 322 322 322 323 322 322 322 322 321 320 320 320 320 320 320 319 319 318 318 317 317 317 317 316 316 315 314 312 310
320 320 321 320 320 319 319 319 320 321 322 322 321 321 321 321 320 321 322 322 322 323 323 323 323 323 323 323 322 320 320 321 322 321 320 320 319 319 320 320 319 319 319 319 319 319 319 319 319 319 319 318 318 318 319 319 320 320 320 320 321 321 321 321 320 320 320 320 319 319 319 318 318 318 318 317 317 316 316 315 314 312 310 308 307
320 320 321 321 319 319 319 319 319 319 320 320 320 320 320 320 320 320 321 321 321 321 322 322 323 323 322 322 321 320 320 321 321 320 320 320 319 318 318 319 318 318 318 318 317 317 317 317 317 317 317 316 316 316 317 317 317 318 319 319 319 319 320 320 320 320 319 319 319 318 318 318 318 317 317 316 316 315 315 313 310 308 307 307 306
320 320 320 320 319 319 319 319 318 319 319 319 319 319 320 319 319 319 320 320 320 321 321 321 321 321 320 320 321 320 318 319 321 321 320 319 319 318 318 317 317 316 316 316 316 316 315 315 315 315 314 314 314 314 314 313 313 314 315 315 315 315 316 316 316 316 316 316 316 315 315 315 315 315 315 315 314 312 310 308 306 305 306 306 306
320 320 320 319 319 319 319 319 318 319 319 319 319 319 320 320 320 320 320 320 320 320 320 320 320 320 320 320 320 319 317 316 319 320 319 319 318 317 317 317 316 316 315 314 314 314 314 314 314 313 312 312 312 311 311 311 311 311 311 310 310 310 310 310 310 310 310 311 310 310 310 310 310 311 311 310 309 308 307 306 305 305 305 306 306
315 317 318 319 318 318 318 317 317 318 318 318 319 319 320 320 321 321 321 321 320 320 320 320 319 320 320 319 320 319 317 316 318 319 318 318 317 316 316 316 316 315 315 314 313 313 313 312 312 312 311 311 310 310 310 310 310 310 309 309 308 308 308 308 308 308 308 308 308 307 306 306 306 306 307 306 306 306 306 306 306 306 306 307 308
308 313 316 317 317 317 316 316 316 317 316 317 318 318 317 318 319 320 320 320 319 319 319 319 319 320 319 319 319 319 316 316 318 318 317 317 317 316 315 316 315 314 314 314 313 313 312 312 312 311 311 310 309 309 309 309 309 309 309 309 308 308 307 307 307 307 307 307 307 306 305 305 305 305 306 305 305 305 306 306 306 305 306 306 307
311 315 317 317 317 317 316 316 316 316 316 317 317 317 317 317 318 318 319 319 319 319 319 319 319 319 319 320 320 319 317 316 317 317 317 317 316 315 315 314 314 313 313 313 313 312 312 311 311 311 310 310 310 309 308 307 306 307 307 307 307 307 307 306 306 305 305 304 304 305 304 304 304 304 304 304 304 305 305 306 306 305 305 306 306
316 317 316 316 316 316 315 316 315 315 316 316 316 317 317 317 317 317 318 318 318 319 319 319 318 318 319 320 320 319 318 317 317 317 316 316 315 315 314 313 313 312 312 312 311 311 311 310 310 310 310 310 310 309 308 306 305 306 306 305 305 305 304 304 303 303 302 302 302 303 303 303 303 304 303 303 304 304 304 304 304 305 305 305 305
316 316 315 315 315 315 314 314 314 314 314 315 315 315 315 316 316 317 317 317 318 318 318 318 318 318 318 319 319 318 318 317 316 316 315 315 314 314 313 312 312 311 311 311 310 310 309 309 309 309 309 309 308 308 307 306 304 304 305 304 303 303 302 301 301 300 300 300 301 302 302 303 303 304 304 304 304 304 304 304 304 304 304 304 304
315 315 315 315 314 314 314 314 314 314 314 314 315 315 315 316 316 317 317 317 317 318 318 318 318 318 318 318 318 317 317 316 315 315 314 314 313 313 312 311 311 311 310 309 309 308 308 308 307 307 307 307 306 306 305 304 303 303 303 303 302 301 300 299 298 298 298 300 301 302 302 302 303 303 303 303 303 303 303 303 303 303 303 303 303
314 314 314 314 314 314 314 313 314 314 314 314 315 315 315 315 316 316 316 317 317 317 317 317 317 317 317 317 317 316 316 316 315 314 314 313 312 312 311 311 310 310 310 309 308 307 307 306 306 306 306 305 305 304 304 303 302 302 302 301 300 299 298 297 297 297 298 300 301 302 302 302 302 302 302 302 303 303 303 303 303 303 303 303 303
313 313 314 313 313 313 313 313 314 314 314 314 315 315 315 315 315 315 316 316 316 316 317 316 316 316 316 316 316 316 316 315 314 313 313 312 311 311 310 310 309 309 309 308 308 307 306 305 305 305 305 305 304 303 303 302 302 301 300 299 298 297 296 296 296 297 298 299 301 301 301 301 301 302 302 302 303 303 302 302 302 302 302 302 303
312 313 313 312 312 313 313 313 313 313 313 314 314 314 314 314 314 314 315 315 315 316 316 316 316 316 316 315 315 314 314 314 313 312 312 311 311 310 310 309 308 308 308 308 307 306 305 305 304 304 304 304 303 302 302 301 300 299 299 298 297 296 296 296 296 296 298 300 301 300 301 301 301 301 301 301 301 302 302 302 301 302 302 302 302
Wind_Speed
19 20 19 19 19 18 19 21 21 21 20 19 19 19 19 19 18 17 17 16 16 17 18 18 16 16 15 14 13 15 16 15 14 13 14 14 13 12 12 13 15 16 13 12 11 11 12 13 12 13 13 13 13 12 11 10 10 11 12 12 12 13 13 14 16 17 16 13 12 12 10 9 9 8 9 10 8 7 7 9 12 13 14 16 15
19 18 18 18 19 19 18 19 20 21 20 20 20 19 19 19 19 18 18 18 18 18 18 19 18 18 17 16 15 15 16 16 15 15 15 15 16 14 13 14 16 17 15 14 13 12 13 13 14 14 14 14 14 12 11 11 11 11 12 11 12 12 12 13 14 15 15 14 13 12 11 11 9 8 10 12 11 9 8 7 9 11 12 14 15
16 16 18 17 17 18 18 19 20 20 20 20 20 20 19 19 19 19 19 19 19 20 19 19 19 19 18 18 17 16 16 17 17 16 17 17 18 16 13 13 15 15 16 15 14 13 14 14 14 13 13 13 13 13 13 12 11 12 12 11 11 12 12 13 14 15 17 16 15 12 11 11 10 11 12 13 12 12 10 8 9 10 10 10 13
15 17 19 18 16 17 17 19 21 20 20 20 20 20 19 19 19 19 19 19 19 20 20 20 19 19 19 19 20 19 18 18 18 18 18 18 19 18 15 15 15 15 15 15 14 13 14 14 14 13 12 13 14 14 14 13 12 13 13 12 12 12 12 13 14 14 16 17 15 13 13 14 13 13 14 14 13 12 11 11 10 10 9 9 11
16 16 18 19 20 19 16 15 19 21 20 18 19 19 19 19 19 19 19 20 19 18 20 20 20 20 20 20 20 20 20 20 19 19 19 18 18 18 17 17 16 16 17 16 16 16 15 14 14 13 14 14 15 14 13 14 13 13 13 12 12 12 11 11 13 14 15 16 16 17 17 18 15 13 12 12 12 10 10 11 11 11 11 11 12
15 15 17 19 20 18 16 15 18 20 20 17 17 20 20 19 19 20 19 19 20 19 19 20 20 20 21 20 20 20 20 20 20 20 20 18 17 18 18 18 17 17 17 16 16 16 16 16 15 15 14 15 15 15 14 14 14 14 14 12 11 12 13 13 13 14 15 17 19 20 20 17 15 13 12 12 13 12 12 12 13 13 13 12 12
13 14 15 16 17 16 15 16 18 19 19 17 17 19 20 18 17 19 20 20 20 19 19 18 18 20 21 21 20 20 19 20 20 21 21 19 19 19 18 18 18 17 17 16 15 14 14 13 14 14 14 14 14 14 15 15 14 14 15 13 13 15 16 16 15 14 15 18 20 21 20 18 17 15 14 13 14 15 16 17 17 15 12 12 12
12 12 12 12 14 15 14 16 17 18 18 18 17 17 19 20 18 16 18 20 20 19 19 19 18 19 20 20 21 20 20 21 21 21 22 21 21 20 20 19 18 17 17 16 14 13 12 11 12 14 15 14 14 14 15 16 14 13 13 13 14 15 16 16 16 16 17 20 21 21 21 20 19 17 16 15 14 15 16 18 20 18 14 12 11
12 13 12 12 14 15 16 16 17 17 17 19 20 19 19 19 18 17 17 18 19 18 19 20 18 18 18 19 20 20 20 20 21 21 22 23 23 22 20 19 18 18 18 17 16 14 13 14 15 17 15 14 15 16 16 16 16 16 15 15 15 16 17 18 18 19 19 21 22 21 21 21 19 17 17 17 16 16 16 18 19 18 16 13 11
10 11 11 12 13 14 15 16 16 17 17 18 19 19 18 17 18 19 18 16 17 18 19 20 19 18 17 16 17 20 21 22 23 22 22 22 23 23 21 19 18 18 18 17 17 16 14 14 15 17 16 15 16 17 16 16 16 17 17 18 19 19 18 18 19 19 20 20 21 20 20 19 18 17 19 20 19 18 17 17 17 16 14 14 12
9 8 8 9 9 10 11 12 13 14 15 16 16 18 18 18 18 19 18 17 18 18 20 22 23 22 21 18 16 20 23 23 23 22 22 22 22 22 21 19 19 20 20 18 17 18 17 16 15 17 18 19 19 19 17 17 17 17 17 19 20 20 18 19 19 18 18 19 20 20 20 19 18 18 19 20 19 18 17 18 17 16 15 16 14
10 8 7 7 8 9 10 11 12 13 14 15 16 18 19 19 19 20 22 23 23 21 21 23 25 25 25 22 20 23 25 23 21 20 21 22 23 23 23 22 20 19 18 17 17 19 20 19 18 19 20 20 20 19 18 17 17 17 16 17 17 16 17 18 19 18 18 20 21 22 22 22 23 22 20 20 20 19 18 19 18 17 17 16 15
13 13 13 13 12 13 14 14 13 13 14 15 16 19 20 20 20 22 24 26 27 27 24 23 24 26 26 25 24 26 25 22 20 20 20 22 23 23 23 23 22 21 19 18 17 17 18 19 19 19 20 20 20 19 19 19 18 18 18 18 17 16 17 18 19 19 19 20 23 24 23 23 24 24 22 22 23 21 20 20 19 18 17 15 13
8 10 11 12 13 13 14 14 13 14 15 15 16 18 19 18 18 19 21 22 22 24 24 22 23 25 26 26 25 25 25 23 22 21 20 20 21 22 22 23 23 23 22 21 20 18 17 18 17 17 18 19 20 21 21 21 21 20 20 20 19 19 20 20 20 20 20 21 23 24 24 23 24 24 24 24 25 24 22 21 20 19 17 15 14
6 7 9 10 12 13 13 14 14 14 15 16 16 16 18 18 17 17 18 18 18 20 22 22 23 24 25 25 23 23 25 26 25 24 21 19 19 19 20 20 20 20 20 20 20 19 19 18 17 17 18 18 19 22 22 22 22 22 22 22 21 21 22 22 21 21 21 22 23 23 24 24 24 24 24 25 26 25 23 22 20 18 16 15 15
4 6 9 11 12 13 12 13 14 13 12 12 12 14 16 16 15 15 16 16 17 19 21 23 25 25 25 25 24 23 25 26 26 26 24 20 18 17 17 17 17 17 17 18 18 18 18 19 19 20 19 17 19 22 23 23 23 24 24 25 24 24 24 22 21 21 22 24 25 24 24 23 22 22 23 24 25 24 22 21 19 17 15 15 16
5 4 4 4 4 4 5 7 9 11 11 10 9 10 12 12 12 13 14 16 17 19 21 22 25 26 27 27 25 24 25 25 24 23 22 20 19 18 17 17 17 17 17 18 18 18 19 20 21 21 20 20 21 23 24 25 25 25 26 27 27 28 27 24 23 24 25 26 26 26 25 24 23 22 23 25 27 26 24 23 21 19 17 17 17
10 11 10 9 8 6 4 3 3 5 6 7 7 7 8 9 9 10 12 13 16 18 20 22 24 26 28 28 27 26 26 25 24 22 20 18 18 17 17 18 18 19 19 18 18 18 19 20 20 20 20 21 23 23 24 25 25 25 25 26 27 28 27 26 26 27 27 28 27 27 26 25 23 22 23 26 28 28 28 27 23 20 19 18 17
13 13 12 11 10 9 8 7 6 5 5 5 5 5 5 5 5 6 8 10 12 15 18 22 23 23 24 23 22 25 27 26 24 23 21 19 18 18 18 20 20 21 20 19 18 18 18 18 18 18 17 19 22 22 22 23 24 24 24 25 27 27 26 26 27 27 27 28 27 27 27 26 25 25 25 27 27 28 30 30 26 22 22 21 20
14 13 12 12 11 10 9 8 7 6 5 4 3 3 3 4 4 4 5 6 8 10 12 14 11 16 20 17 16 20 24 25 23 22 21 20 20 19 19 19 20 20 19 17 16 15 15 15 15 15 15 16 19 21 22 22 24 25 26 27 28 29 28 28 28 28 28 29 28 27 28 27 26 26 27 27 27 28 30 30 28 26 25 23 21
13 13 13 13 12 12 11 10 8 7 5 4 3 3 3 2 2 3 4 5 7 7 6 8 6 1 5 6 6 10 15 19 22 21 20 19 18 17 16 16 17 16 15 14 13 12 12 13 15 16 17 18 19 21 22 23 24 26 27 28 29 30 30 31 32 31 31 33 32 30 30 30 28 28 28 27 27 29 30 30 30 30 28 25 23
13 13 13 12 12 12 11 11 9 8 8 7 5 4 3 2 2 3 4 5 6 7 7 8 9 8 8 7 6 6 5 6 10 12 14 14 12 11 11 12 13 13 13 14 14 13 13 15 18 19 19 20 22 23 23 24 26 27 27 28 29 30 31 32 33 33 33 33 33 32 32 32 31 31 30 29 30 31 32 33 33 31 30 29 27
13 14 15 15 14 12 12 11 10 9 9 8 7 6 4 4 3 3 3 4 5 6 7 8 8 9 9 9 8 9 9 9 7 4 4 7 8 8 10 12 12 12 11 13 15 16 16 18 19 19 19 19 20 20 21 22 23 24 24 25 26 27 28 29 30 30 30 31 32 32 32 31 30 31 31 30 31 30 31 33 32 31 31 30 26
13 14 15 16 16 16 15 14 12 11 11 9 9 9 8 6 5 4 3 3 4 4 5 6 6 7 8 8 8 8 8 7 7 7 6 7 8 8 9 10 11 11 11 12 13 14 15 15 15 14 13 13 14 15 16 17 18 19 21 22 22 24 25 26 28 28 27 27 27 26 26 26 25 27 28 29 29 28 29 30 31 30 28 25 22
13 13 13 14 14 14 14 14 14 13 12 10 10 11 11 11 9 8 7 5 5 5 6 6 7 8 7 7 7 7 7 7 7 7 6 6 6 7 7 7 8 8 8 9 9 10 10 10 9 7 7 8 10 12 12 13 14 15 17 18 19 20 21 22 21 21 20 18 17 16 18 20 21 25 27 27 26 25 25 25 23 20 18 18 16
13 13 13 13 13 13 13 14 14 13 13 13 12 12 12 12 11 10 10 10 9 10 11 11 12 12 11 11 11 11 11 11 11 10 9 8 7 7 6 5 4 4 4 6 6 7 7 6 4 4 5 7 9 10 11 13 14 14 14 16 16 15 16 16 15 13 12 12 13 14 16 19 21 22 21 19 19 18 16 15 13 9 9 10 9
12 12 12 12 12 13 15 15 15 15 14 14 14 14 14 13 12 12 12 12 12 12 12 13 13 12 12 12 11 11 12 12 12 11 10 10 9 9 8 7 5 4 5 8 9 8 6 6 5 5 6 8 9 10 12 14 15 15 14 14 14 13 13 13 11 11 10 11 13 14 14 14 15 15 13 13 13 12 9 8 8 8 8 6 5
10 10 10 11 12 12 12 14 15 15 15 14 14 15 16 15 14 13 13 12 11 11 11 11 11 11 12 11 11 11 12 12 11 11 11 10 10 10 10 9 9 8 8 9 9 9 9 8 7 6 8 8 8 10 12 14 15 15 14 13 13 13 13 13 10 8 7 6 6 5 7 9 11 12 12 11 10 9 6 5 7 9 9 6 4
9 8 8 9 10 10 9 10 11 13 14 14 14 16 18 18 17 15 13 12 11 10 10 10 11 11 11 12 12 12 12 12 12 12 12 12 12 11 11 10 10 9 9 8 9 10 9 9 8 8 7 6 7 9 11 13 14 14 13 13 14 14 13 13 10 7 5 4 5 8 10 12 12 12 12 12 12 11 9 10 11 11 9 5 3
9 8 7 9 9 9 8 7 8 8 8 10 12 15 17 19 18 16 15 14 13 13 11 10 10 11 11 11 12 13 13 14 14 14 13 13 13 12 12 11 10 9 8 7 8 8 8 7 7 5 3 3 6 10 11 13 13 13 13 14 14 13 11 10 10 11 11 11 12 13 13 14 14 14 13 13 13 13 13 13 13 11 8 4 3
9 8 7 8 9 9 7 6 7 7 7 9 12 12 13 16 16 15 15 16 15 15 14 13 11 10 10 11 12 13 14 14 14 13 13 13 13 13 13 12 10 8 6 5 5 6 5 3 3 3 3 4 6 8 10 11 12 12 11 11 11 11 10 11 12 12 13 14 15 16 15 16 17 17 16 15 14 14 13 11 11 10 7 3 5
6 6 6 6 6 7 6 5 6 7 7 9 11 10 9 11 12 12 13 14 15 16 16 15 14 12 12 12 12 12 13 13 12 12 13 13 12 13 14 13 11 7 3 2 2 3 3 4 4 5 5 6 7 7 7 6 7 8 8 8 9 9 10 11 12 13 14 14 15 15 16 17 18 17 17 15 14 13 10 8 7 8 6 3 5
7 7 8 7 4 4 5 5 5 5 5 5 5 5 6 7 9 11 11 11 13 14 15 16 16 15 15 15 14 14 13 12 12 11 11 11 12 13 15 16 15 12 8 5 5 6 7 6 6 6 7 7 7 5 3 2 4 3 3 5 7 9 10 11 11 12 13 13 13 15 16 16 15 14 14 13 12 12 9 6 5 4 3 1 1
8 10 11 10 7 4 4 4 2 2 3 2 2 3 4 6 8 9 9 9 11 12 12 13 15 16 16 16 16 15 14 13 12 11 9 10 12 14 15 16 16 16 14 11 9 9 9 8 7 6 6 7 6 3 1 2 1 1 1 5 9 10 10 10 10 9 9 9 10 12 13 13 11 10 10 10 10 9 7 4 3 1 2 2 2
8 10 12 12 9 6 5 6 5 4 4 3 2 2 2 4 7 7 7 8 10 10 9 10 12 14 15 15 15 15 15 14 12 10 8 8 8 10 12 13 13 14 14 13 12 11 10 10 9 7 7 8 7 6 4 1 0 2 1 5 8 8 8 8 8 7 6 5 6 7 8 8 7 6 5 4 4 3 1 2 4 5 6 5 5
7 7 8 8 6 4 6 9 9 9 8 6 3 1 1 3 6 7 7 7 8 8 7 9 11 13 13 13 13 13 14 14 13 11 8 9 10 9 9 10 11 11 11 12 13 12 10 10 9 9 9 11 11 11 10 6 4 3 3 5 6 5 5 5 3 2 3 3 3 3 2 1 1 3 4 3 3 4 6 7 8 9 9 8 9
7 6 5 5 5 7 9 9 8 9 10 9 6 4 4 4 6 7 7 7 7 6 7 9 10 11 11 10 9 10 11 13 13 11 8 9 10 10 9 9 9 9 9 10 11 11 11 10 9 8 9 11 11 10 10 8 7 6 3 2 1 0 1 2 2 2 2 3 3 3 2 3 4 6 7 7 6 7 8 8 9 11 12 12 12
8 6 7 8 10 13 12 9 6 7 9 9 7 6 6 7 7 6 7 8 8 6 6 8 10 9 8 7 7 9 11 9 8 9 9 7 7 8 9 8 6 6 6 6 8 9 9 8 8 8 7 8 8 7 6 5 4 4 3 2 3 4 4 5 5 5 6 7 6 6 5 6 7 8 9 9 9 10 10 11 12 13 14 13 12
7 7 9 10 11 11 10 8 7 6 7 7 7 7 7 7 7 7 8 8 8 8 7 8 9 8 5 3 4 7 7 5 4 5 6 6 4 6 7 7 7 8 8 6 6 6 6 5 6 6 5 4 4 4 4 4 3 4 4 4 5 5 6 6 7 9 10 11 11 11 11 11 11 12 13 14 14 13 14 15 16 16 14 12 9
7 7 9 10 10 9 9 8 8 7 7 8 8 8 8 7 7 7 9 9 9 9 9 9 10 11 8 6 8 8 5 1 2 2 3 3 4 3 3 5 6 6 6 6 6 7 8 7 6 6 7 6 5 4 5 5 5 5 6 8 9 9 10 10 11 13 14 15 16 17 17 18 17 17 17 17 17 16 16 16 15 13 11 9 7
6 7 8 9 9 8 7 7 7 7 8 9 9 9 9 9 8 8 10 10 10 9 9 10 11 12 12 12 13 11 7 2 1 3 3 1 2 4 6 6 3 2 3 5 4 5 5 5 5 6 8 8 5 5 7 7 7 8 9 11 12 13 14 14 14 15 16 16 17 19 19 20 21 20 19 19 17 16 15 14 11 7 6 5 6
6 5 6 7 7 7 7 7 8 8 8 8 8 8 9 9 10 10 10 11 11 9 10 11 13 13 13 13 13 11 8 6 3 2 3 1 1 3 5 4 3 6 10 11 8 5 5 5 8 13 15 12 7 3 3 4 4 6 8 10 10 10 10 10 9 10 10 10 11 14 16 17 17 16 14 14 12 10 9 9 7 5 2 2 4
8 5 5 6 6 6 7 7 7 8 7 7 8 9 9 9 10 11 10 10 10 10 10 11 13 15 15 15 12 10 7 6 3 3 4 3 2 4 2 1 0 4 6 5 4 5 5 5 7 10 10 9 8 7 5 3 3 3 0 3 3 3 3 3 4 6 6 5 5 10 13 14 13 9 7 8 7 4 4 5 5 3 1 2 3
4 2 4 6 6 7 7 7 8 8 8 8 9 10 10 10 11 11 11 11 10 11 12 12 12 14 16 15 12 8 7 6 3 6 6 4 2 0 2 3 1 2 1 4 4 3 5 5 3 4 3 2 4 9 11 10 7 7 8 8 8 8 9 9 10 10 10 9 8 8 9 10 8 4 4 5 4 2 3 4 5 3 2 2 2
4 4 5 6 7 7 7 7 8 8 8 8 10 10 10 10 10 10 10 11 10 11 12 12 11 12 14 14 10 6 6 6 4 5 4 3 2 2 4 4 3 1 4 9 9 7 8 8 6 5 6 7 9 10 9 10 11 11 10 11 13 14 14 13 13 14 14 13 11 10 9 8 6 5 6 6 3 2 3 3 3 3 2 2 4
3 5 6 6 6 6 6 8 9 9 8 8 10 10 10 11 11 11 11 11 11 11 12 12 11 11 12 12 9 7 6 5 5 6 7 7 7 5 2 3 4 3 4 8 9 7 7 9 10 11 12 12 14 15 12 10 13 16 14 11 13 15 14 14 15 16 16 13 9 7 6 6 5 7 9 8 5 4 4 3 3 5 6 4 2
4 4 5 5 6 6 6 7 8 8 7 8 9 9 9 10 11 11 11 11 11 12 12 11 11 11 11 10 9 8 7 5 5 6 8 9 8 5 3 3 4 4 4 6 7 7 9 10 11 13 16 17 17 18 15 13 15 19 19 16 14 15 15 15 15 16 14 10 6 3 0 3 4 5 5 5 5 5 4 2 2 5 5 3 2
5 4 4 6 6 6 7 8 8 7 8 9 9 9 10 11 10 10 11 12 11 12 12 11 11 11 10 9 8 6 4 4 5 5 5 6 6 6 7 9 8 6 4 2 4 6 9 11 11 13 15 16 15 15 13 12 14 18 20 19 18 19 18 16 14 11 7 4 5 5 3 2 3 3 3 5 6 4 3 2 3 4 4 4 4
5 3 4 5 6 6 6 7 8 8 8 9 10 9 10 11 10 10 10 11 11 10 10 11 12 12 11 11 9 5 4 5 6 5 4 5 6 7 9 10 8 7 6 5 3 4 6 8 10 12 13 14 14 14 13 13 16 19 20 19 20 22 20 14 8 3 1 4 6 5 4 2 3 2 2 4 6 6 4 4 4 4 3 3 4
3 3 4 4 5 6 6 6 6 7 6 7 8 8 9 9 10 9 9 9 9 9 9 10 11 11 11 12 11 8 8 9 9 7 6 6 7 7 7 6 4 4 7 9 8 6 7 8 12 14 15 15 15 14 15 16 17 18 19 19 20 21 16 7 2 2 3 6 6 4 4 3 3 3 2 2 2 4 4 4 4 4 3 2 3
3 3 4 4 4 6 6 5 6 6 6 7 7 7 8 8 9 9 8 7 7 8 8 7 7 8 9 10 10 9 9 8 7 6 6 7 8 10 10 8 5 5 7 8 9 9 8 9 11 14 16 16 15 14 16 17 16 16 18 19 19 15 8 1 1 2 5 7 7 4 4 3 2 4 3 1 1 1 3 4 4 4 4 3 2
Wind_Direction
203 204 203 203 205 211 217 216 212 210 210 211 213 216 216 216 217 217 217 218 220 221 220 215 215 224 233 236 228 222 229 236 235 237 245 249 248 243 235 239 254 260 263 265 261 253 248 248 254 261 266 271 277 280 280 282 285 286 288 290 287 287 288 288 293 303 313 313 311 320 324 308 305 327 326 304 295 300 305 308 311 316 318 316 319
209 209 205 204 208 210 213 218 218 215 215 215 215 217 218 218 217 218 219 219 219 222 227 226 220 219 223 230 232 228 231 239 236 231 237 247 254 252 243 239 248 256 261 263 263 263 261 257 259 266 271 277 286 292 288 285 286 285 284 285 287 291 293 291 296 301 304 308 317 324 319 304 301 308 297 284 285 289 289 299 308 312 321 326 327
213 210 207 209 213 213 213 217 218 217 218 219 220 219 219 220 220 219 221 222 223 223 225 227 228 227 224 225 230 230 231 237 238 233 232 238 248 253 245 240 251 263 267 268 269 270 272 273 270 272 275 277 282 285 282 280 283 284 285 286 288 291 293 293 295 297 299 304 310 310 307 303 300 298 293 288 287 289 291 295 297 299 308 324 329
222 212 209 208 210 213 218 223 221 219 221 222 223 224 223 223 223 222 223 224 225 228 227 226 231 235 232 228 229 228 228 232 235 237 236 235 242 249 246 239 240 251 260 265 267 268 272 275 274 273 273 270 271 275 277 279 284 289 291 289 285 281 283 286 289 292 295 297 298 297 301 303 301 297 296 295 292 288 288 290 292 294 295 297 302
212 212 216 216 217 217 218 230 231 225 224 225 228 230 228 227 227 225 226 227 226 228 230 229 229 232 234 234 233 231 230 231 232 235 239 239 240 244 248 248 245 245 249 254 258 264 271 273 273 275 274 271 272 275 279 281 281 281 282 283 287 288 285 284 284 285 290 296 297 297 301 303 303 302 301 302 300 293 288 289 293 295 290 286 291
207 214 226 229 231 232 233 244 243 232 227 232 238 235 228 228 231 230 230 232 229 229 233 234 230 230 232 234 237 237 236 236 235 235 238 240 242 244 247 251 253 253 255 257 258 262 267 270 270 270 269 270 273 275 277 279 279 278 279 282 288 290 286 285 285 284 288 296 299 300 303 305 305 306 305 305 303 301 299 298 300 299 290 283 288
218 222 230 230 232 236 238 242 244 240 241 247 245 236 234 243 246 238 234 235 235 233 234 236 234 233 233 233 235 237 239 240 240 240 241 239 239 242 245 249 254 257 259 262 263 262 265 271 272 271 270 272 276 275 272 273 277 280 284 286 285 284 283 283 285 289 295 300 301 301 304 307 309 308 306 305 301 302 304 304 305 306 295 283 287
215 221 230 233 232 233 233 234 240 247 254 254 249 247 253 257 255 247 240 237 236 237 236 235 238 241 241 239 237 236 238 242 243 245 246 244 242 242 243 245 248 253 257 262 264 263 264 265 263 265 268 270 275 275 268 267 270 273 277 280 282 286 287 287 292 299 301 299 299 302 306 309 311 309 306 305 302 303 305 304 307 309 297 286 298
210 213 219 227 233 236 236 238 243 248 249 247 253 263 264 256 252 256 253 241 233 235 236 234 234 240 246 247 244 242 243 244 244 245 246 246 245 243 243 246 248 250 253 256 257 256 259 260 260 265 268 266 267 270 270 272 275 276 274 273 275 282 288 293 299 302 300 298 298 301 304 307 310 308 304 304 304 307 308 305 309 311 299 290 302
214 212 214 220 228 234 238 241 243 247 249 250 256 262 260 256 257 261 262 254 241 237 237 236 233 235 242 248 250 248 247 246 242 240 242 247 249 247 244 243 244 246 246 247 247 247 251 257 263 271 275 273 274 276 276 278 281 282 282 280 278 281 284 289 294 294 293 294 294 296 299 301 303 300 298 299 301 303 305 306 309 311 304 297 301
198 202 214 225 233 240 247 249 247 249 251 253 253 251 250 253 255 254 257 260 255 249 246 242 239 239 241 246 253 254 253 253 248 240 238 243 248 250 249 244 242 244 247 250 251 250 250 254 263 272 274 273 277 281 278 277 279 283 286 285 282 280 277 277 280 283 285 288 291 294 295 293 293 293 292 294 297 298 301 303 303 304 304 302 301
219 222 231 241 256 271 275 271 267 262 257 253 247 245 249 252 252 251 251 254 259 265 265 256 249 246 245 245 251 252 252 254 253 246 240 240 243 249 253 253 250 248 251 258 262 259 255 253 257 266 270 270 273 278 279 280 280 281 285 286 280 275 273 273 274 275 279 285 290 292 291 290 292 291 289 290 294 294 295 296 295 296 300 300 298
241 244 247 252 267 286 291 288 284 277 268 261 253 249 251 254 254 254 253 253 257 261 264 263 257 251 249 248 249 252 252 254 256 254 248 244 243 245 251 255 255 255 259 265 268 265 261 256 256 260 267 271 276 278 279 280 280 279 281 283 281 278 278 278 279 278 278 280 283 285 286 287 288 288 288 288 289 289 289 290 289 289 292 293 293
250 252 256 258 265 278 286 287 285 278 270 265 260 255 253 252 251 252 253 255 255 253 256 262 261 256 253 251 250 253 254 253 253 254 252 248 245 244 248 252 254 257 261 263 265 265 263 261 263 266 268 273 279 281 279 277 277 277 276 280 283 284 283 284 284 284 282 280 280 281 282 282 279 279 282 282 282 282 283 284 284 283 285 284 284
259 261 259 251 250 256 264 269 272 270 268 268 266 262 259 255 252 253 254 255 257 256 256 258 259 258 256 253 252 254 255 253 252 253 252 249 245 246 248 250 252 258 262 263 264 265 263 264 270 275 276 278 280 280 281 279 278 278 279 281 284 284 285 287 285 282 281 282 282 283 285 283 275 272 274 276 278 279 278 276 275 274 273 273 277
237 241 239 237 239 244 252 264 272 275 278 282 278 269 264 261 258 257 258 260 261 260 258 258 259 258 257 256 255 254 255 255 254 253 252 248 245 246 251 254 256 260 262 262 260 260 262 266 270 273 278 284 285 282 281 281 281 282 283 284 283 283 283 283 282 280 281 282 282 282 284 284 279 275 274 274 275 274 271 266 262 261 263 266 270
125 144 169 188 208 233 255 273 281 283 286 293 291 277 268 267 266 263 263 263 264 266 264 261 259 257 257 256 254 252 252 253 252 250 249 248 247 247 250 255 260 261 261 261 261 260 261 263 265 269 273 278 279 279 279 280 281 282 283 283 282 281 281 282 282 282 281 281 281 283 284 281 278 277 277 275 272 268 264 260 255 259 264 264 263
93 92 88 85 83 78 65 39 357 319 305 304 304 294 284 280 279 278 276 273 273 275 270 262 260 261 260 253 246 246 247 246 247 248 248 247 248 250 253 257 260 262 262 264 267 269 268 266 268 273 274 271 271 272 275 277 279 280 281 281 281 281 283 285 285 283 282 281 281 284 285 280 276 274 272 272 269 265 262 257 250 250 256 257 257
74 77 77 75 73 70 64 58 46 31 21 11 358 343 335 332 320 306 297 291 293 292 285 276 266 256 253 252 243 240 243 243 242 245 246 247 249 252 255 257 256 257 259 262 266 270 272 272 273 274 271 268 267 269 271 274 276 277 277 279 282 284 286 286 284 283 283 283 284 285 284 281 279 275 270 268 267 267 266 259 250 246 249 252 251
62 64 65 65 64 61 57 54 52 48 47 46 41 36 35 32 15 346 324 311 315 316 306 298 270 223 222 233 225 220 231 238 241 243 246 248 251 252 254 254 254 255 257 260 262 264 267 271 272 270 269 267 266 267 269 271 273 274 275 277 280 282 283 281 280 280 282 284 285 283 281 281 279 276 274 270 266 267 267 260 254 250 247 247 245
55 53 52 53 55 56 55 55 54 51 51 58 70 79 76 81 67 19 1 342 343 348 333 328 340 191 215 250 230 210 220 229 234 237 239 240 244 248 250 250 250 252 256 258 258 258 263 268 268 264 263 267 270 271 271 271 272 273 275 278 279 279 280 281 281 283 283 283 282 279 278 279 277 275 274 268 263 266 264 256 249 246 243 240 235
58 55 54 52 51 52 55 56 57 56 50 45 45 48 49 53 49 28 18 2 353 354 346 341 347 357 7 5 350 335 316 265 240 229 226 231 238 245 255 259 255 251 252 252 251 250 253 259 263 264 266 271 276 278 278 277 278 279 280 281 282 282 283 284 284 283 282 282 280 278 277 276 277 278 274 268 264 260 252 246 243 241 239 236 228
60 57 54 53 53 55 59 61 64 67 64 56 51 46 39 34 22 8 6 1 351 347 349 356 355 349 351 358 353 348 349 342 331 310 268 268 275 279 285 287 280 272 266 261 259 258 257 259 264 269 274 279 282 284 285 284 284 285 285 285 286 286 286 285 285 283 282 280 278 276 274 273 275 276 271 268 265 250 233 232 237 234 232 231 223
59 59 55 51 47 46 50 54 57 60 62 62 61 57 51 45 36 25 16 355 344 347 348 351 357 355 353 354 352 349 348 341 334 329 313 296 285 282 284 285 283 279 275 270 268 266 263 264 267 273 281 288 292 292 292 290 288 289 290 289 289 289 287 286 285 283 283 282 279 276 274 270 269 269 267 268 265 247 224 221 225 221 217 214 206
59 60 60 60 56 50 49 50 50 51 52 53 55 54 51 48 46 48 53 45 29 28 25 21 25 30 32 33 28 21 18 13 4 352 334 314 299 292 288 285 281 279 276 277 276 273 271 269 272 285 304 313 310 305 302 298 294 294 296 296 295 293 292 291 291 292 293 291 285 278 273 270 268 267 266 263 254 238 223 218 217 210 200 194 187
57 56 54 54 56 55 55 55 52 47 45 45 47 47 45 44 43 45 48 49 50 53 52 52 54 55 55 54 50 44 35 26 20 16 7 356 348 338 329 320 308 305 327 336 322 298 290 296 309 330 339 333 326 327 326 320 314 314 314 313 312 310 304 301 302 303 300 291 279 271 268 268 264 256 248 238 226 219 219 219 213 195 181 183 175
57 57 53 48 45 43 43 46 48 47 46 45 46 48 48 46 44 45 46 44 46 52 54 53 54 53 50 48 42 33 23 15 12 11 7 4 1 353 348 344 339 348 15 13 357 339 339 356 5 4 354 343 339 343 340 330 328 335 338 336 336 333 324 316 308 302 298 289 278 271 260 249 239 222 206 200 200 201 208 210 191 154 135 144 149
58 58 54 49 45 43 39 35 35 39 43 45 46 47 46 44 41 42 44 43 42 43 42 38 35 31 27 23 19 16 12 8 7 7 7 7 5 359 354 352 353 0 12 16 13 11 17 23 20 8 359 352 348 346 339 331 335 347 356 356 356 355 353 350 343 330 320 304 281 252 211 194 183 172 168 167 160 153 146 142 137 127 118 120 127
57 63 68 59 49 45 45 43 38 34 32 36 44 46 40 36 35 34 35 35 33 31 29 25 22 19 17 15 16 18 20 20 19 18 17 17 14 10 7 5 8 14 19 30 39 36 33 35 33 26 22 15 2 352 345 342 348 0 12 17 15 13 12 14 24 49 74 108 134 137 144 150 146 141 143 136 124 117 110 101 99 98 97 97 89
60 55 74 88 78 56 46 49 49 40 28 28 37 41 34 27 25 27 30 30 28 25 23 24 25 25 24 24 25 26 26 28 27 26 26 26 22 17 14 12 16 28 40 55 53 39 35 48 51 41 35 14 358 356 356 358 4 18 33 36 32 31 34 45 68 90 102 111 116 117 120 121 119 118 120 116 110 105 99 92 84 81 81 73 37
74 55 58 80 81 64 51 45 34 26 25 25 23 23 20 15 14 20 25 24 22 17 14 15 17 20 23 23 22 22 21 22 24 25 28 29 25 20 17 13 14 27 46 64 61 45 40 52 44 5 330 327 347 1 6 12 23 36 45 48 51 56 64 78 93 101 106 109 110 110 110 108 107 106 104 100 97 94 93 89 84 86 95 70 7
71 56 44 54 64 59 57 59 39 18 16 20 14 7 3 1 2 8 14 15 15 14 13 11 7 5 10 12 11 11 11 11 15 20 24 29 29 26 24 21 17 20 23 358 344 350 336 324 330 331 322 327 348 357 0 20 44 52 53 59 70 80 92 101 107 109 110 110 108 106 106 106 104 100 94 87 85 88 92 96 98 105 114 82 24
51 40 24 18 31 50 51 54 50 29 16 19 19 10 359 350 347 350 354 1 5 6 8 10 9 6 6 5 4 6 7 5 9 15 21 31 38 36 32 29 25 22 15 355 339 334 332 332 332 328 326 334 342 340 345 66 74 61 73 100 109 111 115 121 125 125 122 119 114 111 110 108 103 98 91 86 86 91 97 106 122 135 150 153 50
31 16 8 7 14 37 40 26 20 10 355 351 22 29 3 339 333 334 336 347 358 357 355 2 7 8 5 1 359 2 4 3 5 12 24 41 50 48 41 34 31 26 21 18 17 9 3 6 4 357 0 5 2 358 70 126 100 355 101 140 142 140 140 144 146 138 126 117 113 112 115 116 113 108 105 104 109 117 124 138 164 200 284 295 290
11 356 355 4 15 23 10 349 338 341 341 328 331 27 17 344 329 316 313 333 347 345 339 347 357 359 359 358 359 3 8 9 8 15 34 52 59 61 55 47 42 35 26 23 21 15 16 25 28 29 37 41 38 39 51 90 283 347 82 145 146 146 150 152 148 134 118 108 103 106 118 130 127 111 100 110 134 149 172 289 298 314 325 333 343
0 346 341 355 9 6 344 338 342 351 355 343 321 315 12 349 332 315 308 326 339 331 321 332 342 345 347 353 3 14 22 25 20 21 44 58 51 47 52 54 52 44 36 34 29 19 17 27 31 35 49 56 54 49 46 50 60 68 121 149 146 146 157 158 145 116 99 85 75 77 98 146 113 19 7 353 320 310 316 316 318 328 334 335 336
345 338 327 325 317 313 318 324 331 342 351 355 1 8 359 339 330 320 309 314 328 332 325 326 329 329 328 335 354 12 21 25 21 20 36 57 56 45 38 46 55 50 42 42 37 24 16 16 19 31 51 60 61 57 50 48 52 58 78 127 133 192 223 241 292 307 333 356 359 357 344 321 310 313 319 320 315 312 313 315 317 322 326 327 329
338 326 310 302 303 311 322 331 332 331 337 343 347 347 335 321 316 315 307 306 313 319 319 317 317 316 311 310 332 358 6 10 19 24 27 37 58 58 44 37 41 46 45 49 47 35 28 26 25 27 40 54 60 61 56 47 37 30 20 349 326 318 304 300 303 302 307 316 316 309 304 301 299 302 306 310 313 313 312 313 315 316 320 325 324
330 317 307 307 314 323 330 335 328 318 319 322 319 317 317 314 313 313 312 312 313 313 308 305 304 306 309 316 332 345 354 1 25 40 32 23 35 62 62 49 36 33 35 40 44 36 27 29 26 10 356 12 35 36 34 31 12 351 340 323 312 308 300 297 300 301 302 305 304 302 299 297 297 299 300 301 306 311 311 313 316 316 316 319 316
323 319 316 318 324 327 326 325 322 316 309 306 306 308 311 310 310 314 315 313 314 316 313 302 294 294 300 305 303 302 306 355 32 329 320 359 14 18 41 54 57 55 48 49 53 40 23 23 33 12 341 338 349 352 354 357 345 332 324 314 306 302 296 295 297 298 298 298 297 296 296 294 294 296 298 298 300 304 306 310 315 317 319 324 326
315 313 315 320 325 327 324 322 322 318 310 304 305 309 308 300 297 305 312 311 309 313 316 309 298 294 296 298 299 297 285 239 193 309 305 350 32 351 350 1 12 13 1 3 28 51 41 33 27 358 334 324 331 1 12 5 350 341 334 325 317 310 305 303 302 299 297 298 299 298 296 294 293 293 294 295 299 304 309 317 325 327 321 315 314
297 300 308 313 316 317 316 311 308 305 302 302 305 307 304 299 297 299 303 303 301 303 309 309 303 299 297 296 298 296 274 234 213 322 322 288 25 6 5 358 345 359 3 359 3 32 42 10 345 336 327 319 315 338 37 53 34 9 353 342 336 330 324 323 321 314 312 318 321 314 306 301 301 300 298 298 304 311 316 328 343 354 354 341 336
270 282 305 311 306 303 303 301 299 301 301 300 301 299 295 295 297 299 301 303 301 299 301 300 298 298 298 298 299 293 263 220 213 285 269 215 97 44 46 179 1 30 28 21 34 41 21 357 356 354 349 351 346 324 298 255 189 171 217 332 335 326 306 292 284 286 289 299 316 316 315 317 325 332 327 320 325 336 333 334 343 355 63 50 355
293 312 313 309 305 303 300 295 293 296 298 299 300 301 300 298 295 295 298 300 298 297 296 295 295 296 295 297 300 285 241 211 239 281 258 210 171 321 263 235 193 106 214 251 264 305 309 310 1 39 26 0 316 305 310 312 285 239 227 240 251 253 256 259 263 273 280 276 269 281 309 329 340 337 308 303 320 3 357 337 337 357 55 73 294
350 337 308 302 305 304 299 293 292 295 299 303 304 305 306 305 302 301 302 301 297 295 294 292 293 292 289 291 297 281 228 206 235 263 241 190 192 248 260 268 276 249 253 270 285 302 295 278 267 268 272 267 270 286 314 327 308 282 261 254 260 267 272 276 279 285 292 291 278 273 286 306 320 327 327 329 345 2 329 304 308 322 312 246 274
346 325 307 305 310 309 302 299 299 300 305 311 312 310 309 309 307 307 308 307 302 297 291 287 288 287 281 278 276 261 232 216 228 235 219 201 197 196 210 280 291 284 275 284 298 307 287 267 264 271 275 276 278 282 287 293 294 293 290 281 275 275 279 284 286 287 289 289 282 277 293 311 328 347 353 357 0 349 331 314 305 298 279 249 263
356 325 310 309 313 311 308 309 309 306 304 308 309 306 307 309 309 307 307 305 302 298 294 291 287 283 280 279 275 263 250 242 238 236 230 221 213 209 220 248 255 263 284 299 300 286 271 271 278 282 283 285 286 285 284 285 287 289 293 295 292 288 290 297 299 295 292 286 264 221 73 357 334 328 331 319 290 264 248 248 309 316 308 307 339
330 307 304 313 314 305 301 308 315 315 318 323 325 322 320 320 319 315 310 308 305 301 296 290 282 273 269 271 272 267 265 261 246 233 230 224 211 207 221 233 240 245 249 276 301 293 286 286 285 282 284 290 294 294 294 290 285 288 295 301 304 305 310 314 310 301 294 264 207 172 123 33 326 305 315 314 301 281 259 289 328 332 330 333 334
309 302 302 313 320 313 304 310 318 320 320 323 326 329 329 328 326 324 320 316 312 305 295 290 288 281 271 266 264 250 219 221 217 206 211 226 219 214 223 234 242 244 233 230 263 307 313 306 298 292 289 291 293 295 292 285 283 290 298 303 307 312 317 320 314 297 167 156 168 157 111 48 332 317 336 335 333 334 331 322 321 322 323 334 336
307 321 306 305 321 320 309 310 319 326 329 328 326 329 334 335 335 336 333 332 330 320 305 298 298 293 280 274 272 258 234 226 219 203 200 206 198 199 215 227 231 236 237 241 258 286 305 305 297 291 288 288 290 290 286 285 289 294 297 302 311 317 320 319 283 199 155 156 165 148 102 65 1 341 331 282 293 317 316 307 316 333 341 350 343
297 315 304 298 311 315 310 311 317 324 332 335 333 332 333 335 340 337 328 330 346 347 334 321 316 304 289 284 281 268 254 249 238 224 225 226 216 217 229 239 241 247 253 259 270 282 290 290 285 282 283 286 288 288 287 289 294 297 301 309 317 321 322 327 180 189 165 161 163 143 98 70 359 339 336 295 206 27 344 325 328 346 355 359 352